Location: Alsip
(41.6689°N, 87.7387°W)
Time: 14:06:55
(UTC+00:00)

Cosmos 407 Rocket - Pass Details

Date: 14 July 2020
Orbit: 743 x 786 km, 74.0° (Epoch: 04 August)

Event Time Altitude Azimuth Distance (km) Brightness Sun altitude
Exits shadow 07:36:01 55° 220° (SW) 941 3.5 -22.7°
Maximum altitude 07:37:11 77° 290° (WNW) 811 3.5 -22.6°
Drops below altitude 10° 07:42:33 10° 17° (NNE) 2,355 7.1 -22.2°
Sets 07:44:57 0° 19° (NNE) 3,286 8.2 -22.0°
